Terug naar catalogus

STARLINK-5011

ActiefCommunicatieVLEO
NORAD 53925·PAYLOAD·🇺🇸 United States

Gelanceerd Sep 24, 2022 vanaf Cape Canaveral Space Force Station

Loading…

Volgende Passages (komende 24 uur)

TLE

VersSource: CelesTrak SupGP

Epoch: Sep 15, 2026, 02:27 UTC

1 53925C 22119AR  26258.10256944 -.00005956  00000+0 -37354-3 0  2582
2 53925  53.1589 182.7829 0001452  86.4782 342.2656 15.08832113    12

Volg STARLINK-5011 in realtime met AllMySat

Download on the App Store